Regional Weather Roundup
Issued by NWS

Home | Current Version | Previous Version | Text Only | Print | Product List | Glossary Off
Versions: 1 2 3 4 5 6 7 8 9 10 11 12 13 14 15 16 17 18 19 20 21 22 23 24 25 26 27 28 29 30 31 32 33 34 35 36 37 38 39 40 41 42 43 44 45 46 47 48 49 50

000
ASUS44 KMEG 182310
RWRTN
TENNESSEE HOURLY STATE WEATHER ROUNDUP
NATIONAL WEATHER SERVICE MEMPHIS TN
500 PM CST WED JAN 18 2017

TNZ002-004-019-021-049-052-054-088>092-190000-
WEST TENNESSEE

CITY           SKY/WX    TMP DP  RH WIND       PRES   REMARKS
MEMPHIS INTL   CLOUDY    54  44  69 VRB5      30.08F
NWS MEMPHIS      N/A     53 N/A N/A MISG        N/A
JACKSON        CLOUDY    52  45  77 E3        30.12S
DYERSBURG      CLOUDY    48  41  76 E6        30.11F
UNION CITY     PTCLDY    46  46 100 CALM      30.11F
PARIS          CLOUDY    45  39  81 CALM      30.13R
HUNTINGDON     CLEAR     48  43  81 CALM      30.12S
$$

TNZ008-025-027-028-033-062-065-066-190000-
NORTH MIDDLE TENNESSEE

CITY           SKY/WX    TMP DP  RH WIND       PRES   REMARKS
NASHVILLE      CLOUDY    48  40  73 CALM      30.15S
PORTLAND       CLEAR     48  41  76 CALM      30.13F
CLARKSVILLE    PTCLDY    47  39  74 CALM      30.14F
SMYRNA         CLOUDY    47  42  83 CALM      30.16R
GALLATIN       CLEAR     48  41  76 CALM      30.17S
CROSSVILLE     CLOUDY    49  41  74 W5        30.12S
$$

TNZ061-075-076-078-094-096-097-190000-
SOUTH MIDDLE TENNESSEE

CITY           SKY/WX    TMP DP  RH WIND       PRES   REMARKS
FAYETTEVILLE   CLEAR     54  46  76 N3        30.12R
TULLAHOMA      CLEAR     48  43  81 N5        30.13R
WINCHESTER     CLEAR     54  45  71 N5        30.12S
MCMINNVILLE    CLEAR     48  43  81 CALM      30.13R
COLUMBIA       CLEAR     50  50 100 NE6       30.11S
SHELBYVILLE    CLEAR     48  45  87 N5        30.14S
$$

TNZ017-018-042-046-047-190000-
NORTHEAST TENNESSEE

CITY           SKY/WX    TMP DP  RH WIND       PRES   REMARKS
TRI CITIES     MOCLDY    51  38  60 W6        30.09R
ELIZABETHTON   PTCLDY    52  41  66 NW3       30.09R
$$

TNZ012-013-036-069-073-074-190000-
CENTRAL EAST TENNESSEE

CITY           SKY/WX    TMP DP  RH WIND       PRES   REMARKS
KNOXVILLE      CLOUDY    57  43  59 CALM      30.10S
OAK RIDGE      PTCLDY    57  41  55 CALM      30.12S
GATLINBURG     CLEAR     54  39  58 CALM      30.10S
MORRISTOWN     CLEAR     52  37  58 NW5       30.11R
JACKSBORO      CLEAR     50  41  71 CALM      30.15R
$$

TNZ083-085-099-190000-
SOUTHEAST TENNESSEE

CITY           SKY/WX    TMP DP  RH WIND       PRES   REMARKS
CHATTANOOGA    MOCLDY    62  44  51 NE5       30.10S
$$

SKY/WX REPORTED AS FAIR MEANS FEW OR NO CLOUDS BELOW
12 THOUSAND FEET.





USA.gov is the U.S. government's official web portal to all federal, state and local government web resources and services.